Groton, CT

3:17 PM EST on November 13, 2019 (GMT -0500)
Groton-New London

Weather History for KGON - October, 2019

Change the Weather History Date:

Thursday, October 17, 2019

  Actual Average Record
Temperature  
Mean Temperature 58 °F -  
Max Temperature 62 °F 61 °F 78 °F (1963)
Min Temperature 51 °F 42 °F 26 °F (1978)
Degree Days  
Heating Degree Days 8    
Growing Degree Days 8 (Base 50)    
Moisture  
Dew Point 44 °F    
Average Humidity 67    
Maximum Humidity 93    
Minimum Humidity 53    
Precipitation  
Precipitation 0.34 in - - ()
Sea Level Pressure  
Sea Level Pressure 29.14 in    
Wind  
Wind Speed 19 mph ()    
Max Wind Speed 38 mph    
Max Gust Speed 60 mph    
Visibility 8.4 miles    
Events Rain , Thunderstorm    
Averages and records for this station are not official NWS values.
T = Trace of Precipitation, MM = Missing Value Source: Averaged Metar Reports

Daily Weather History Graph

Daily Weather History Graph

Search for Another Location

Airport or City:

Astronomy

Oct. 17, 2019 Rise Set
Actual Time 7:01 AM EDT 6:04 PM EDT
Civil Twilight 6:33 AM EDT 6:32 PM EDT
Nautical Twilight 6:01 AM EDT 7:04 PM EDT
Astronomical Twilight 5:29 AM EDT 7:36 PM EDT
Moon 8:32 PM EDT (10/17) 10:32 AM EDT (10/17)
Length of Visible Light 11h 58m
Length of Day
11h 02m
Waning Gibbous, 87% of the Moon is Illuminated
Oct 17
Waning Gibbous
Oct 21
Last Quarter
Oct 27
New
Nov 4
First Quarter
Nov 12
Full

Hourly Weather History & Observations

Time (EDT) Temp. Dew Point Humidity Pressure Visibility Wind Dir Wind Speed Gust Speed Precip Events Conditions
12:10 AM 64.0 °F 62.1 °F 93% 29.04 in 1.8 mi SE 38.0 mph 59.8 mph 0.07 in Rain , Thunderstorm Light Rain
12:39 AM 63.0 °F - N/A% 29.04 in 2.5 mi SSE 26.5 mph 43.7 mph 0.30 in Rain , Thunderstorm Light Rain
12:45 AM 63.0 °F - N/A% 29.04 in 3.0 mi SE 20.7 mph 31.1 mph 0.30 in Rain , Thunderstorm Light Rain
12:56 AM 63.0 °F - N/A% 29.02 in 3.0 mi ESE 18.4 mph 32.2 mph 0.32 in Rain Rain
1:06 AM 62.1 °F - N/A% 29.01 in 2.5 mi SE 13.8 mph - 0.01 in Rain Light Rain
1:14 AM 62.1 °F - N/A% 28.99 in 4.0 mi SE 15.0 mph - 0.01 in Rain Light Rain
1:56 AM 62.1 °F - N/A% 28.94 in 9.0 mi South 13.8 mph - 0.01 in   Overcast
2:09 AM 60.1 °F - N/A% 28.92 in 10.0 mi SW 12.7 mph 29.9 mph 0.01 in   Mostly Cloudy
2:26 AM 60.1 °F - N/A% 28.91 in 10.0 mi SW 11.5 mph - 0.01 in   Mostly Cloudy
2:37 AM 60.1 °F - N/A% 28.90 in 3.0 mi SW 9.2 mph - 0.01 in Rain Light Rain
2:56 AM 57.0 °F - N/A% 28.93 in 10.0 mi NW 23.0 mph 35.7 mph 0.01 in   Overcast
3:03 AM 55.9 °F - N/A% 28.95 in 10.0 mi WNW 19.6 mph 34.5 mph N/A   Overcast
3:56 AM 53.1 °F 48.9 °F 86% 29.02 in 10.0 mi West 19.6 mph 36.8 mph N/A   Overcast
4:56 AM 51.1 °F 46.0 °F 83% 29.05 in 10.0 mi West 21.9 mph 32.2 mph N/A   Partly Cloudy
5:56 AM 51.1 °F 44.1 °F 77% 29.08 in 10.0 mi WSW 17.3 mph 29.9 mph N/A   Mostly Cloudy
6:56 AM 51.1 °F 44.1 °F 77% 29.11 in 10.0 mi West 25.3 mph 34.5 mph N/A   Scattered Clouds
7:56 AM 53.1 °F 42.1 °F 66% 29.15 in 10.0 mi WSW 24.2 mph 38.0 mph N/A   Mostly Cloudy
8:56 AM 54.0 °F 42.1 °F 64% 29.16 in 10.0 mi West 20.7 mph 38.0 mph N/A   Overcast
9:56 AM 55.0 °F 43.0 °F 64% 29.16 in 10.0 mi WSW 29.9 mph 40.3 mph N/A   Mostly Cloudy
10:56 AM 55.9 °F 43.0 °F 62% 29.15 in 10.0 mi West 25.3 mph 42.6 mph N/A   Mostly Cloudy
11:56 AM 57.0 °F 42.1 °F 57% 29.16 in 10.0 mi WSW 24.2 mph 41.4 mph N/A   Mostly Cloudy
12:56 PM 57.0 °F 43.0 °F 59% 29.15 in 10.0 mi WSW 26.5 mph 42.6 mph N/A   Overcast
1:56 PM 57.0 °F 44.1 °F 62% 29.16 in 10.0 mi WSW 27.6 mph 42.6 mph N/A   Overcast
2:56 PM 57.0 °F 42.1 °F 57% 29.18 in 10.0 mi West 23.0 mph 34.5 mph 0.00 in   Overcast
3:56 PM 57.9 °F 41.0 °F 53% 29.23 in 10.0 mi West 20.7 mph 31.1 mph N/A   Overcast
4:56 PM 57.9 °F 41.0 °F 53% 29.26 in 10.0 mi West 16.1 mph 28.8 mph N/A   Mostly Cloudy
5:56 PM 55.9 °F 41.0 °F 57% 29.29 in 10.0 mi West 21.9 mph 33.4 mph N/A   Mostly Cloudy
6:56 PM 55.9 °F 41.0 °F 57% 29.33 in 10.0 mi West 12.7 mph 28.8 mph N/A   Overcast
7:56 PM 55.0 °F 41.0 °F 59% 29.37 in 10.0 mi West 16.1 mph 26.5 mph N/A   Overcast
8:56 PM 55.0 °F 42.1 °F 62% 29.40 in 10.0 mi West 18.4 mph 28.8 mph N/A   Overcast
9:56 PM 54.0 °F 43.0 °F 66% 29.44 in 10.0 mi West 13.8 mph 29.9 mph N/A   Mostly Cloudy
10:56 PM 53.1 °F 45.0 °F 74% 29.48 in 10.0 mi West 16.1 mph - N/A   Overcast
11:56 PM 52.0 °F 45.0 °F 77% 29.51 in 10.0 mi West 13.8 mph 23.0 mph 0.00 in Rain Light Rain